Regional Weather Roundup
Issued by NWS

Home | Current Version | Previous Version | Graphics & Text | Print | Product List | Glossary On
Versions: 1 2 3 4 5 6 7 8 9 10 11 12 13 14 15 16 17 18 19 20 21 22 23 24 25 26 27 28 29 30 31 32 33 34 35 36 37 38 39 40 41 42 43 44 45 46 47 48 49 50
000
ASUS45 KBOI 250610
RWRID

IDAHO REGIONAL WEATHER ROUNDUP
NATIONAL WEATHER SERVICE BOISE ID
1200 AM MDT THU AUG 25 2016

NOTE: "FAIR" INDICATES FEW OR NO CLOUDS BELOW 12000 FEET
WITH NO SIGNIFICANT WEATHER AND/OR OBSTRUCTIONS TO VISIBILITY

IDZ012-014-250700-
SOUTHWEST IDAHO


CITY           SKY/WX    TMP DP  RH WIND       PRES   REMARKS
BOISE          CLEAR     65  36  34 SW3       30.05S
CALDWELL       CLEAR     64  41  42 W9        30.05S
MOUNTAIN HOME  CLEAR     62  28  27 W5        30.07S
$$

IDZ016-017-250700-
SOUTHCENTRAL IDAHO


CITY           SKY/WX    TMP DP  RH WIND       PRES   REMARKS
JEROME         CLEAR     53  35  50 SE6       30.14S
TWIN FALLS     CLEAR     60  27  28 S22       30.14F
$$

IDZ019>023-250700-
SOUTHEAST IDAHO


CITY           SKY/WX    TMP DP  RH WIND       PRES   REMARKS
IDAHO FALLS    CLEAR     54  35  48 N9        30.22R
POCATELLO      CLEAR     55  34  45 N7        30.18S
REXBURG        CLEAR     55  35  47 NE12      30.23R
$$

IDZ006-010-011-018-031-032-250700-
CENTRAL IDAHO MOUNTAINS


CITY           SKY/WX    TMP DP  RH WIND       PRES   REMARKS
MCCALL         CLEAR     62  35  36 N10       30.21S
HAILEY         PTCLDY    54  32  43 W5        30.22F
STANLEY          N/A     51  28  41 CALM      30.28R
SALMON         CLEAR     63  32  31 SE18G25   30.23R
CHALLIS        CLEAR     57  32  38 NW8       30.24S
$$

IDZ002-004-006-007-026-250700-
NORTHERN IDAHO


CITY           SKY/WX    TMP DP  RH WIND       PRES   REMARKS
LEWISTON       CLEAR     72  41  32 CALM      30.12R
LOWELL           N/A     58  49  72 N3        30.17R
COEUR D`ALENE  CLEAR     64  39  39 N10       30.18S
MULLAN PASS    CLEAR     52  32  46 E6        30.35S
$$



USA.gov is the U.S. government's official web portal to all federal, state and local government web resources and services.